Location: Maiden
(35.5760°N, 81.2120°W)
Time: 02:41:54
(UTC-04:00)

A-11 Canister half - Pass Details

Date: 04 August 2020
Orbit: 1527 x 1682 km, 47.3° (Epoch: 25 September)

Event Time Altitude Azimuth Distance (km) Brightness Sun altitude
Rises 23:14:04 0° 294° (WNW) 4,849 12.5 -28.4°
Reaches altitude 10° 23:18:09 10° 280° (W) 3,833 11.6 -28.9°
Maximum altitude 23:24:56 22° 235° (SW) 2,958 10.4 -29.7°
Enters shadow 23:27:54 19° 212° (SSW) 3,119 10.4 -30.0°
Drops below altitude 10° 23:31:35 10° 190° (S) 3,736 - -30.4°
Sets 23:35:33 0° 175° (S) 4,695 - -30.9°
